Location: Dal�� Lhota
(48.7500°N, 14.0167°E)
Time: 02:21:15
(UTC+00:00)

Vanguard 3 - Pass Details

Date: 07 August 2021
Orbit: 510 x 3260 km, 33.3° (Epoch: 16 September)

Event Time Altitude Azimuth Distance (km) Brightness Sun altitude
Rises 17:12:13 0° 250° (WSW) 5,196 12.4 11.7°
Reaches altitude 10° 17:15:20 10° 244° (WSW) 4,527 11.9 11.2°
Maximum altitude 17:27:59 45° 178° (S) 3,466 10.3 9.2°
Drops below altitude 10° 17:45:42 10° 114° (ESE) 6,194 11.0 6.4°
Sets 17:50:52 0° 110° (ESE) 7,202 11.3 5.5°
